Regional Weather Roundup
Issued by NWS Sioux Falls, SD

Home | Current Version | Previous Version | Text Only | Print | Product List | Glossary On
Versions: 1 2 3 4 5 6 7 8 9 10 11 12 13 14 15 16 17 18 19 20 21 22 23 24 25 26 27 28 29 30 31 32 33 34 35 36 37 38 39 40 41 42 43 44 45 46 47 48 49 50
000
ASUS43 KFSD 232102
RWRFSD

WEATHER ROUNDUP FOR SE SOUTH DAKOTA/SW MINNESOTA/NW IOWA
NATIONAL WEATHER SERVICE SIOUX FALLS SD
400 PM CDT MON APR 23 2018

NOTE: "FAIR" INDICATES FEW OR NO CLOUDS BELOW 12,000 FEET WITH NO
SIGNIFICANT WEATHER AND OR OBSTRUCTIONS TO VISIBILITY.


SDZ038>040-050-052>070-232200-
SOUTHEAST SOUTH DAKOTA

CITY           SKY/WX    TMP DP  RH WIND       PRES   REMARKS
BROOKINGS      SUNNY     66  34  30 VRB5      30.14F
CHAMBERLAIN    PTSUNNY   69  41  36 S6        30.09F
HURON          MOSUNNY   69  39  33 S6        30.11F
MADISON        FAIR      66  36  32 E8        30.14F
MITCHELL       CLOUDY    68  41  37 S10       30.12F
SIOUX FALLS    MOSUNNY   69  33  26 NE3       30.13F
WINNER         MOCLDY    69  38  32 S10       30.07F
YANKTON        SUNNY     69  35  28 NE9       30.11F
$$

MNZ071-072-080-081-089-090-097-098-232200-
SOUTHWEST MINNESOTA

CITY           SKY/WX    TMP DP  RH WIND       PRES   REMARKS
FAIRMONT       SUNNY     61  38  42 NE5       30.17F
JACKSON        SUNNY     61  36  39 E3        30.17F
LUVERNE        SUNNY     66  32  28 SE3       30.15F
MARSHALL       SUNNY     66  34  30 VRB6      30.16F
MONTEVIDEO     SUNNY     72  37  28 NW6       30.15F
PIPESTONE      SUNNY    N/A N/A N/A CALM      30.15F
REDWOOD FALLS  SUNNY     66  36  32 CALM      30.15F
TRACY          SUNNY     65  35  33 SW5       30.16F
WINDOM         SUNNY     64  36  34 N3        30.17S
WORTHINGTON      N/A     64  42  44 E8        30.16F
$$

IAZ001>003-012>014-020>022-031-032-NEZ013-014-SDZ071-232200-
NORTHWEST IOWA

CITY           SKY/WX    TMP DP  RH WIND       PRES   REMARKS
DENISON        SUNNY     70  32  24 VRB5G13   30.11F
ESTHERVILLE    SUNNY     60  41  49 NE8       30.16F
LE MARS        SUNNY     72  30  21 S9        30.11F
ORANGE CITY    SUNNY     70  36  28 E3        30.13F
SHELDON        SUNNY     68  32  26 SE6G12    30.12F
SIOUX CITY     SUNNY     72  31  22 E10       30.10F
SPENCER        SUNNY     67  35  30 E8        30.15F
STORM LAKE     SUNNY     66  39  37 NE12      30.13F
$$

ABBREVIATIONS USED IN REMARKS
   TC - TEMPERATURE IN CELSIUS
  WCI - WIND CHILL INDEX
   HX - HEAT INDEX
  VSB - VISIBILITY




USA.gov is the U.S. government's official web portal to all federal, state and local government web resources and services.